Time,TemperatureF,DewpointF,PressureIn,WindDirection,WindDirectionDegrees,WindSpeedMPH,WindSpeedGustMPH,Humidity,HourlyPrecipIn,Conditions,Clouds,dailyrainin,SoftwareType,DateUTC
2013-01-14 08:23:00,67.0,-99.9,30.19,ESE,119,4.0,8.0,-999,-99.99,,,-99.99,,2013-01-14 13:23:00,
2013-01-14 08:34:00,68.0,-99.9,30.19,ESE,120,3.0,6.0,-999,-99.99,,,-99.99,,2013-01-14 13:34:00,
2013-01-14 08:43:00,68.0,-99.9,30.19,ESE,119,4.0,6.0,-999,-99.99,,,-99.99,,2013-01-14 13:43:00,
2013-01-14 08:53:00,68.0,-99.9,30.19,ESE,113,4.0,7.0,-999,-99.99,,,-99.99,,2013-01-14 13:53:00,
2013-01-14 09:03:00,68.0,-99.9,30.19,ESE,113,4.0,7.0,-999,-99.99,,,-99.99,,2013-01-14 14:03:00,
2013-01-14 09:13:00,68.0,-99.9,30.19,ESE,113,4.0,7.0,-999,-99.99,,,-99.99,,2013-01-14 14:13:00,
2013-01-14 09:23:00,68.0,-99.9,30.19,ESE,113,4.0,7.0,-999,-99.99,,,-99.99,,2013-01-14 14:23:00,
2013-01-14 10:12:00,69.0,-99.9,30.21,ESE,122,6.0,11.0,-999,-99.99,,,-99.99,,2013-01-14 15:12:00,
2013-01-14 10:24:00,69.0,-99.9,30.22,SE,143,5.0,7.0,-999,-99.99,,,-99.99,,2013-01-14 15:24:00,
2013-01-14 10:34:00,69.0,-99.9,30.22,SE,144,5.0,6.0,-999,-99.99,,,-99.99,,2013-01-14 15:34:00,
2013-01-14 10:43:00,70.0,-99.9,30.22,SSE,149,3.0,5.0,-999,-99.99,,,-99.99,,2013-01-14 15:43:00,
2013-01-14 10:53:00,71.0,-99.9,30.21,SE,134,3.0,4.0,-999,-99.99,,,-99.99,,2013-01-14 15:53:00,
2013-01-14 11:03:00,70.0,-99.9,30.22,SSE,147,4.0,5.0,-999,-99.99,,,-99.99,,2013-01-14 16:03:00,
2013-01-14 11:13:00,71.0,-99.9,30.21,SSE,153,3.0,4.0,-999,-99.99,,,-99.99,,2013-01-14 16:13:00,
2013-01-14 11:23:00,71.0,-99.9,30.21,South,174,2.0,3.0,-999,-99.99,,,-99.99,,2013-01-14 16:23:00,
2013-01-14 11:33:00,71.0,-99.9,30.20,SSE,155,3.0,4.0,-999,-99.99,,,-99.99,,2013-01-14 16:33:00,
2013-01-14 11:43:00,73.0,-99.9,30.20,SE,138,2.0,4.0,-999,-99.99,,,-99.99,,2013-01-14 16:43:00,
2013-01-14 11:53:00,73.0,-99.9,30.20,SSE,163,2.0,3.0,-999,-99.99,,,-99.99,,2013-01-14 16:53:00,
2013-01-14 12:03:00,73.0,-99.9,30.19,SSE,159,4.0,5.0,-999,-99.99,,,-99.99,,2013-01-14 17:03:00,
2013-01-14 12:12:00,73.0,-99.9,30.19,SSE,157,4.0,5.0,-999,-99.99,,,-99.99,,2013-01-14 17:12:00,
2013-01-14 12:23:00,74.0,-99.9,30.19,South,171,4.0,5.0,-999,-99.99,,,-99.99,,2013-01-14 17:23:00,
2013-01-14 12:34:00,74.0,-99.9,30.19,South,176,5.0,6.0,-999,-99.99,,,-99.99,,2013-01-14 17:34:00,
2013-01-14 12:44:00,74.0,-99.9,30.18,South,170,6.0,8.0,-999,-99.99,,,-99.99,,2013-01-14 17:44:00,
2013-01-14 12:54:00,74.0,-99.9,30.18,SSE,163,6.0,7.0,-999,-99.99,,,-99.99,,2013-01-14 17:54:00,
2013-01-14 13:03:00,74.0,-99.9,30.18,SSE,165,4.0,5.0,-999,-99.99,,,-99.99,,2013-01-14 18:03:00,
2013-01-14 13:13:00,74.0,-99.9,30.18,SSE,160,5.0,5.0,-999,-99.99,,,-99.99,,2013-01-14 18:13:00,
2013-01-14 13:23:00,74.0,-99.9,30.17,SSE,155,4.0,4.0,-999,-99.99,,,-99.99,,2013-01-14 18:23:00,
2013-01-14 13:33:00,75.0,-99.9,30.17,SSE,167,4.0,6.0,-999,-99.99,,,-99.99,,2013-01-14 18:33:00,
2013-01-14 13:43:00,75.0,-99.9,30.16,SSE,167,6.0,6.0,-999,-99.99,,,-99.99,,2013-01-14 18:43:00,
2013-01-14 13:53:00,75.0,-99.9,30.16,South,169,6.0,7.0,-999,-99.99,,,-99.99,,2013-01-14 18:53:00,
2013-01-14 14:03:00,76.0,-99.9,30.15,SSE,161,7.0,8.0,-999,-99.99,,,-99.99,,2013-01-14 19:03:00,
2013-01-14 14:13:00,76.0,-99.9,30.15,SSE,164,6.0,7.0,-999,-99.99,,,-99.99,,2013-01-14 19:13:00,
2013-01-14 14:22:00,75.0,-99.9,30.15,SSE,163,6.0,7.0,-999,-99.99,,,-99.99,,2013-01-14 19:22:00,
2013-01-14 14:30:00,76.0,-99.9,30.15,SW,226,11.0,13.0,-999,-99.99,,,-99.99,,2013-01-14 19:30:00,
2013-01-14 14:33:00,76.0,-99.9,30.15,WSW,239,8.0,10.0,-999,-99.99,,,-99.99,,2013-01-14 19:33:00,
2013-01-14 14:43:00,76.0,-99.9,30.15,WSW,244,7.0,12.0,-999,-99.99,,,-99.99,,2013-01-14 19:43:00,
2013-01-14 14:53:00,76.0,-99.9,30.15,WSW,244,7.0,12.0,-999,-99.99,,,-99.99,,2013-01-14 19:53:00,
2013-01-14 15:04:00,76.0,-99.9,30.15,SW,226,11.0,13.0,-999,-99.99,,,-99.99,,2013-01-14 20:04:00,
2013-01-14 15:13:00,76.0,-99.9,30.15,SW,226,11.0,13.0,-999,-99.99,,,-99.99,,2013-01-14 20:13:00,
2013-01-14 15:23:00,76.0,-99.9,30.15,SW,226,11.0,13.0,-999,-99.99,,,-99.99,,2013-01-14 20:23:00,
2013-01-14 15:53:00,77.0,-99.9,30.15,WSW,240,9.0,12.0,-999,-99.99,,,-99.99,,2013-01-14 20:53:00,
2013-01-14 16:03:00,77.0,-99.9,30.15,SW,224,10.0,12.0,-999,-99.99,,,-99.99,,2013-01-14 21:03:00,
2013-01-14 16:13:00,77.0,-99.9,30.16,SW,225,8.0,12.0,-999,-99.99,,,-99.99,,2013-01-14 21:13:00,
2013-01-14 16:23:00,77.0,-99.9,30.16,SW,225,8.0,12.0,-999,-99.99,,,-99.99,,2013-01-14 21:23:00,
2013-01-14 16:33:00,77.0,-99.9,30.16,SW,225,8.0,12.0,-999,-99.99,,,-99.99,,2013-01-14 21:33:00,
2013-01-14 16:43:00,77.0,-99.9,30.16,SW,236,7.0,12.0,-999,-99.99,,,-99.99,,2013-01-14 21:43:00,
2013-01-14 16:53:00,77.0,-99.9,30.16,SW,230,7.0,10.0,-999,-99.99,,,-99.99,,2013-01-14 21:53:00,
2013-01-14 17:03:00,76.0,-99.9,30.16,WSW,246,8.0,10.0,-999,-99.99,,,-99.99,,2013-01-14 22:03:00,
2013-01-14 17:13:00,76.0,-99.9,30.16,WSW,246,9.0,12.0,-999,-99.99,,,-99.99,,2013-01-14 22:13:00,
2013-01-14 17:23:00,76.0,-99.9,30.16,SW,227,9.0,11.0,-999,-99.99,,,-99.99,,2013-01-14 22:23:00,
2013-01-14 17:33:00,76.0,-99.9,30.17,SW,234,7.0,9.0,-999,-99.99,,,-99.99,,2013-01-14 22:33:00,
2013-01-14 17:43:00,76.0,-99.9,30.17,WSW,239,7.0,9.0,-999,-99.99,,,-99.99,,2013-01-14 22:43:00,
2013-01-14 17:53:00,75.0,-99.9,30.17,SW,235,4.0,7.0,-999,-99.99,,,-99.99,,2013-01-14 22:53:00,
2013-01-14 18:03:00,75.0,-99.9,30.17,SW,222,3.0,7.0,-999,-99.99,,,-99.99,,2013-01-14 23:03:00,
2013-01-14 18:12:00,75.0,-99.9,30.17,SW,223,4.0,5.0,-999,-99.99,,,-99.99,,2013-01-14 23:12:00,
2013-01-14 18:23:00,74.0,-99.9,30.17,SW,221,4.0,5.0,-999,-99.99,,,-99.99,,2013-01-14 23:23:00,
2013-01-14 18:33:00,74.0,-99.9,30.17,SW,216,3.0,4.0,-999,-99.99,,,-99.99,,2013-01-14 23:33:00,
2013-01-14 18:43:00,74.0,-99.9,30.18,SW,224,3.0,4.0,-999,-99.99,,,-99.99,,2013-01-14 23:43:00,
2013-01-14 18:53:00,73.0,-99.9,30.18,SW,232,3.0,3.0,-999,-99.99,,,-99.99,,2013-01-14 23:53:00,
2013-01-14 19:03:00,73.0,-99.9,30.18,SW,227,3.0,3.0,-999,-99.99,,,-99.99,,2013-01-15 00:03:00,
2013-01-14 19:12:00,73.0,-99.9,30.18,SSW,203,2.0,4.0,-999,-99.99,,,-99.99,,2013-01-15 00:12:00,
2013-01-14 19:23:00,72.0,-99.9,30.18,SW,217,2.0,2.0,-999,-99.99,,,-99.99,,2013-01-15 00:23:00,
2013-01-14 19:33:00,72.0,-99.9,30.18,SSW,208,2.0,3.0,-999,-99.99,,,-99.99,,2013-01-15 00:33:00,
2013-01-14 19:43:00,72.0,-99.9,30.18,South,184,2.0,2.0,-999,-99.99,,,-99.99,,2013-01-15 00:43:00,
2013-01-14 19:53:00,71.0,-99.9,30.17,SSE,157,1.0,2.0,-999,-99.99,,,-99.99,,2013-01-15 00:53:00,
2013-01-14 20:02:00,71.0,-99.9,30.17,ESE,112,2.0,3.0,-999,-99.99,,,-99.99,,2013-01-15 01:02:00,
2013-01-14 20:12:00,71.0,-99.9,30.17,ESE,123,2.0,3.0,-999,-99.99,,,-99.99,,2013-01-15 01:12:00,
2013-01-14 20:23:00,71.0,-99.9,30.17,SE,125,4.0,5.0,-999,-99.99,,,-99.99,,2013-01-15 01:23:00,
2013-01-14 20:33:00,70.0,-99.9,30.17,East,87,3.0,5.0,-999,-99.99,,,-99.99,,2013-01-15 01:33:00,
2013-01-14 20:43:00,70.0,-99.9,30.17,East,89,2.0,3.0,-999,-99.99,,,-99.99,,2013-01-15 01:43:00,
2013-01-14 20:53:00,71.0,-99.9,30.17,East,87,1.0,3.0,-999,-99.99,,,-99.99,,2013-01-15 01:53:00,
2013-01-14 21:03:00,71.0,-99.9,30.17,ENE,77,1.0,2.0,-999,-99.99,,,-99.99,,2013-01-15 02:03:00,
2013-01-14 21:12:00,70.0,-99.9,30.17,ENE,78,-999.0,1.0,-999,-99.99,,,-99.99,,2013-01-15 02:12:00,
2013-01-14 21:23:00,70.0,-99.9,30.17,North,356,-999.0,1.0,-999,-99.99,,,-99.99,,2013-01-15 02:23:00,
2013-01-14 21:33:00,70.0,-99.9,30.18,West,272,1.0,2.0,-999,-99.99,,,-99.99,,2013-01-15 02:33:00,
2013-01-14 21:43:00,69.0,-99.9,30.18,West,262,2.0,2.0,-999,-99.99,,,-99.99,,2013-01-15 02:43:00,
2013-01-14 21:53:00,69.0,-99.9,30.18,WNW,285,1.0,2.0,-999,-99.99,,,-99.99,,2013-01-15 02:53:00,
2013-01-14 22:03:00,69.0,-99.9,30.18,NNW,333,1.0,2.0,-999,-99.99,,,-99.99,,2013-01-15 03:03:00,
2013-01-14 22:12:00,68.0,-99.9,30.18,North,-999,-999.0,-999.0,-999,-99.99,,,-99.99,,2013-01-15 03:12:00,
2013-01-14 22:22:00,68.0,-99.9,30.18,North,-999,-999.0,-999.0,-999,-99.99,,,-99.99,,2013-01-15 03:22:00,
2013-01-14 22:33:00,68.0,-99.9,30.18,WNW,284,-999.0,1.0,-999,-99.99,,,-99.99,,2013-01-15 03:33:00,
2013-01-14 22:43:00,67.0,-99.9,30.18,North,-999,-999.0,-999.0,-999,-99.99,,,-99.99,,2013-01-15 03:43:00,
2013-01-14 22:53:00,68.0,-99.9,30.18,North,-999,-999.0,-999.0,-999,-99.99,,,-99.99,,2013-01-15 03:53:00,
2013-01-14 23:03:00,67.0,-99.9,30.18,SW,232,-999.0,1.0,-999,-99.99,,,-99.99,,2013-01-15 04:03:00,
2013-01-14 23:12:00,67.0,-99.9,30.18,West,271,1.0,1.0,-999,-99.99,,,-99.99,,2013-01-15 04:12:00,
2013-01-14 23:22:00,67.0,-99.9,30.17,WSW,241,0.0,1.0,-999,-99.99,,,-99.99,,2013-01-15 04:22:00,
2013-01-14 23:33:00,67.0,-99.9,30.17,WSW,242,-999.0,1.0,-999,-99.99,,,-99.99,,2013-01-15 04:33:00,
2013-01-14 23:43:00,66.0,-99.9,30.17,WSW,248,-999.0,1.0,-999,-99.99,,,-99.99,,2013-01-15 04:43:00,
2013-01-14 23:53:00,66.0,-99.9,30.17,WSW,250,1.0,1.0,-999,-99.99,,,-99.99,,2013-01-15 04:53:00,